[Iaude] MPEC T201: 2023 TC8 [a=1.43,e=0.25,i=9.6,H=23.3]

mpec at marsden.cfa.harvard.edu mpec at marsden.cfa.harvard.edu
Fri Oct 13 02:36:43 EDT 2023


M.P.E.C. 2023-T201                             Issued 2023 October 13, 06:35 UT

     The Minor Planet Electronic Circulars contain information on unusual
         minor planets, routine data on comets and natural satellites,
         and occasional editorial announcements.  They are published
    on behalf of Division F of the International Astronomical Union by the
          Minor Planet Center, Smithsonian Astrophysical Observatory,
                          Cambridge, MA 02138, U.S.A.
			  
             Prepared using the Tamkin Foundation Computer Network

                              MPC at CFA.HARVARD.EDU
            URL https://www.minorplanetcenter.net/    ISSN 1523-6714

                                    2023 TC8                                    

     The following astrometry was found among the isolated tracklets and linked
by R. Weryk.

Observations:
     K23T08C  C2023 09 13.39062300 34 27.478+22 44 34.72         21.51GVET201F52
     K23T08C  C2023 09 13.40227200 34 27.498+22 44 30.05         21.36GVET201F52
     K23T08C  C2023 09 13.41394500 34 27.554+22 44 25.72         22.43GVET201F52
     K23T08C  C2023 09 13.42567300 34 27.569+22 44 21.78         22.49GVET201F52
     K23T08C  C2023 09 18.34714600 35 06.277+21 59 30.69         22.30GVET201F52
     K23T08C  C2023 09 18.35994400 35 06.209+21 59 21.87         21.43GVET201F52
     K23T08C  C2023 09 18.37275700 35 06.126+21 59 13.73         22.21GVET201F52
     K23T08C  C2023 09 18.38556900 35 06.051+21 59 04.93         22.07GVET201F52
     K23T08C KC2023 09 24.39274700 35 01.771+20 27 37.83         21.82GVET201F51
     K23T08C  C2023 09 25.37395600 34 56.912+20 08 26.06         21.60GVET201F52
     K23T08C  C2023 09 25.38441900 34 56.751+20 08 13.78         22.01GVET201F52
     K23T08C  C2023 09 25.40514300 34 56.351+20 07 48.92         21.66GVET201F52
     K23T08C  C2023 09 26.35377400 34 51.064+19 47 59.90         21.96GVET201F52
     K23T08C  C2023 09 26.36471300 34 50.867+19 47 46.06         21.67GVET201F52
     K23T08C KC2023 09 27.38484700 34 43.235+19 25 07.28         21.48GVET201F52
     K23T08C  C2023 10 02.52473000 33 51.277+17 08 30.10         21.32GVET201F52
     K23T08C  C2023 10 02.53878700 33 50.919+17 08 03.81         20.49GVET201F52
     K23T08C  C2023 10 03.33361600 33 44.634+16 43 27.88         21.05GVET201F52
     K23T08C  C2023 10 03.34520300 33 44.380+16 43 06.59         21.18GVET201F52
     K23T08C  C2023 10 03.35680600 33 44.065+16 42 44.56         21.63GVET201F52
     K23T08C  C2023 10 03.36850000 33 43.781+16 42 22.56         20.99GVET201F52
     K23T08C  C2023 10 03.49467700 33 40.442+16 38 22.17         21.50GVET201F51
     K23T08C  C2023 10 03.50830800 33 40.106+16 37 55.61         21.83GVET201F51
     K23T08C  C2023 10 03.52727400 33 39.644+16 37 18.70         21.46GVET201F51
     K23T08C  C2023 10 03.54092200 33 39.326+16 36 52.12         20.96GVET201F51
     K23T08C* C2023 10 04.33202000 33 32.878+16 11 10.76         21.25iXET201F51
     K23T08C  C2023 10 04.34237600 33 32.626+16 10 50.32         20.91iXET201F51
     K23T08C  C2023 10 04.36414100 33 32.057+16 10 07.91         20.87iXET201F51
     K23T08C  C2023 10 05.48632200 33 16.704+15 31 57.68         20.99wXET201F51
     K23T08C  C2023 10 05.49728100 33 16.430+15 31 34.29         21.18wXET201F51
     K23T08C  C2023 10 05.50820500 33 16.147+15 31 11.13         21.31wXET201F51
     K23T08C 1C2023 10 12.23618000 32 03.311+11 01 38.50         20.69GVET201G96
     K23T08C 1C2023 10 12.24135700 32 03.188+11 01 24.64         20.47GVET201G96
     K23T08C 1C2023 10 12.24652700 32 03.055+11 01 10.70         20.44GVET201G96
     K23T08C 1C2023 10 12.25170100 32 02.958+11 00 56.70         20.49GVET201G96

Observer details:
F51 Pan-STARRS 1, Haleakala.  Observers J. Bulger, T. Lowe, P. Minguez, A.
    Schultz, I. Smith.  Measurers K. Chambers, T. de Boer, J. Fairlamb, H.
    Gao, M. Huber, C.-C. Lin, E. Magnier, Y. Ramanjooloo, R. Wainscoat, R.
    Weryk, S. Chastel.  1.8-m Ritchey-Chretien + CCD.
F52 Pan-STARRS 2, Haleakala.  Observers J. Bulger, T. Lowe, P. Minguez, A.
    Schultz, I. Smith.  Measurers K. Chambers, T. de Boer, J. Fairlamb, H.
    Gao, M. Huber, C.-C. Lin, E. Magnier, Y. Ramanjooloo, R. Wainscoat, R.
    Weryk.  1.8-m Ritchey-Chretien + CCD.
G96 Mt. Lemmon Survey.  Observer D. Rankin.  Measurers E. C. Beshore, D. Fay,
    J. B. Fazekas, D. C. Fuls, A. R. Gibbs, A. D. Grauer, H. Groeller, J. K.
    Hogan, R. A. Kowalski, S. M. Larson, G. J. Leonard, D. Rankin, R. L.
    Seaman, F. C. Shelly, K. W. Wierzchos.  1.5-m reflector + 10K CCD.

Orbital elements:
2023 TC8                                                 Earth MOID = 0.1309 AU
Epoch 2023 Sept. 13.0 TT = JDT 2460200.5                Veres                   
M 302.58568              (2000.0)            P               Q                  
n   0.57761047     Peri.  237.45894     +0.14782110     -0.98664009             
a   1.4279489      Node   204.32032     +0.95400375     +0.16050731             
e   0.2547285      Incl.    9.57232     +0.26081750     -0.02790591             
P   1.71           H   23.30          G   0.15           U   7                  
Residuals in seconds of arc
230913 F52  0.2-  0.2+    230926 F52  0.0   0.0     231003 F51  0.0   0.0
230913 F52  0.3-  0.1-    230926 F52  0.0   0.1-    231004 F51  0.1-  0.1+
230913 F52  0.1+  0.1-    230927 F52  0.0   0.1+    231004 F51  0.0   0.1-
230913 F52  0.1+  0.4+    231002 F52  0.2+  0.2-    231004 F51  0.1-  0.2+
230918 F52  0.1+  0.1+    231002 F52  0.3-  0.3-    231005 F51  0.0   0.1+
230918 F52  0.1+  0.3-    231003 F52  0.1-  0.1+    231005 F51  0.2+  0.0
230918 F52  0.0   0.1+    231003 F52  0.3+  0.4+    231005 F51  0.1+  0.0
230918 F52  0.1+  0.1-    231003 F52  0.1-  0.1+    231012 G96  0.1-  0.1-
230924 F51  0.1+  0.0     231003 F52  0.2+  0.0     231012 G96  0.1-  0.0
230925 F52  0.2-  0.1-    231003 F51  0.1-  0.1+    231012 G96  0.2-  0.0
230925 F52  0.2+  0.0     231003 F51  0.0   0.1-    231012 G96  0.2+  0.0
230925 F52  0.1-  0.2-    231003 F51  0.0   0.1-

Ephemeris:
2023 TC8                 a,e,i = 1.43, 0.25, 10                  q = 1.0642
Date    TT    R. A. (2000) Decl.     Delta      r    Elong.  Phase     V
2023 09 13    00 34 21.7 +22 47 06   0.3445  1.3109   147.8    24.1    22.7
...
2023 09 28    00 34 37.6 +19 10 48   0.2629  1.2549   161.9    14.3    21.7
...
2023 10 06    00 33 11.5 +15 13 57   0.2293  1.2260   169.2     8.8    21.1
...
2023 10 12    00 32 04.9 +11 12 32   0.2091  1.2050   170.5     7.8    20.9
2023 10 13    00 31 56.3 +10 27 07   0.2061  1.2016   170.0     8.3    20.8
2023 10 14    00 31 49.0 +09 40 18   0.2033  1.1982   169.4     8.8    20.8
...
2023 10 20    00 31 42.0 +04 33 29   0.1892  1.1783   163.0    14.3    20.8
...
2023 10 28    00 34 00.6 -03 01 59   0.1774  1.1534   152.0    23.9    21.0
...
2023 11 12    00 49 06.1 -16 55 07   0.1734  1.1131   131.8    41.5    21.4

M. P. C. Staff               (C) Copyright 2023 MPC           M.P.E.C. 2023-T201





More information about the Iaude mailing list